Flag for U.S.A. Weather past 2 weeks in Flint, Michigan, U.S.A.

Now
60 °F

Clear.


Feels Like: 60 °F
Forecast: 57 / 79 °F
Wind: 6 mph from East

Location: Bishop International Airport

Current Time: Aug 29, 2014 at 6:15:47 AM

Latest Report: Aug 29, 2014 at 4:53 AM


Visibility: 10 mi

Pressure: 30.11 "Hg

Humidity: 75%

Dew point: 52 °F

Location of FlintLocation

Historic Weather in Flint — Graph

°F

Flint temperature yesterday

Maximum temperature yesterday: 74 °F (at 3:53 PM)
Minimum temperature yesterday: 55 °F (at 6:53 AM)
Average temperature yesterday: 65 °F

Past Weeks' High & Low Weather Summary

 TemperatureHumidityPressure
High89 °F (Aug 26, 2:53 PM)90% (Aug 19, 5:57 PM)30.18 "Hg (Aug 19, 5:57 PM)
Low45 °F (Aug 15, 6:53 AM)35% (Aug 14, 4:53 PM)29.74 "Hg (Aug 19, 3:53 PM)
Average71 °F69%29.99 "Hg
* Reported Aug 14 4:53 AM — Aug 29 4:53 AM, Flint, Weather by CustomWeather, © 2014

Note: Actual official high and low records may vary slightly from our data, if they occured in-between our weather recording intervals... More about our weather records

Advertising

Flint weather history for previous 24 hours

 ConditionsComfort  
Time TempWeatherWind HumidityBarometerVisibility
4:53 AM
Aug 29
60 °FClear.6 mph75%30.11 "Hg10 mi
3:53 AM59 °FClear.5 mph72%30.11 "Hg10 mi
2:53 AM59 °FClear.3 mph72%30.12 "Hg10 mi
1:53 AM59 °FClear.5 mph72%30.14 "Hg10 mi
12:53 AM58 °FClear.5 mph78%30.14 "Hg10 mi
11:53 PM
Aug 28
61 °FClear.5 mph75%30.14 "Hg10 mi
10:53 PM63 °FClear.7 mph70%30.14 "Hg10 mi
9:53 PM65 °FClear.8 mph68%30.14 "Hg10 mi
8:53 PM65 °FSunny.No wind68%30.13 "Hg10 mi
7:53 PM68 °FSunny.3 mph57%30.11 "Hg10 mi
6:53 PM73 °FSunny.5 mph46%30.11 "Hg10 mi
5:53 PM74 °FSunny.No wind40%30.11 "Hg10 mi
4:53 PM74 °FSunny.3 mph43%30.12 "Hg10 mi
3:53 PM74 °FSunny.No wind41%30.13 "Hg10 mi
2:53 PM72 °FSunny.No wind43%30.14 "Hg10 mi
1:53 PM71 °FSunny.7 mph47%30.16 "Hg10 mi
12:53 PM70 °FSunny.7 mph46%30.17 "Hg10 mi
11:53 AM69 °FSunny.7 mph51%30.18 "Hg10 mi
10:53 AM67 °FSunny.5 mph49%30.18 "Hg10 mi
9:53 AM65 °FSunny.7 mph54%30.18 "Hg10 mi
8:53 AM63 °FSunny.3 mph65%30.18 "Hg10 mi
7:53 AM59 °FClear.3 mph78%30.18 "Hg10 mi
6:53 AM55 °FClear.5 mph87%30.17 "Hg10 mi
Weather by CustomWeather, © 2014

See weather overviewHow to use our weather pages